AKST,Max TemperatureF,Mean TemperatureF,Min TemperatureF,Max Dew PointF,MeanDew PointF,Min DewpointF,Max Humidity, Mean Humidity, Min Humidity, Max Sea Level PressureIn, Mean Sea Level PressureIn, Min Sea Level PressureIn, Max VisibilityMiles, Mean VisibilityMiles, Min VisibilityMiles, Max Wind SpeedMPH, Mean Wind SpeedMPH, Max Gust SpeedMPH,PrecipitationIn, CloudCover, Events, WindDirDegrees
2011-11-1,44,42,41,39,38,36,87,82,76,30.26,29.92,29.62,10,9,5,26,12,37,0.00,8,,117
2011-11-2,41,38,35,36,34,32,93,86,76,29.69,29.54,29.46,10,10,10,10,6,,0.00,6,,297
2011-11-3,35,32,30,28,18,14,75,52,41,30.11,30.00,29.77,10,10,10,15,9,21,0.00,1,,97
2011-11-4,39,34,30,32,26,18,87,72,55,30.02,29.76,29.50,10,8,2,22,12,30,0.00,7,,117
2011-11-5,39,37,35,36,34,30,93,86,81,29.78,29.62,29.49,10,10,10,15,7,20,0.00,8,,37
2011-11-6,42,40,37,37,36,34,93,86,81,29.88,29.82,29.71,10,9,7,17,7,23,0.00,8,,119
2011-11-7,39,38,37,36,34,34,93,86,81,29.93,29.82,29.74,10,9,7,17,8,23,0.00,8,,118
2011-11-8,42,40,37,36,34,32,87,81,66,30.09,30.06,30.02,10,10,9,13,9,17,0.00,7,,100
2011-11-9,39,37,33,36,33,30,93,85,75,29.97,29.83,29.74,10,10,10,9,5,,0.00,8,,119
2011-11-10,39,36,33,34,32,30,93,84,75,29.86,29.73,29.47,10,8,6,20,9,26,0.00,8,,116
2011-11-11,39,37,35,36,34,32,93,88,81,29.69,29.56,29.37,10,10,7,13,6,21,0.00,7,,145
2011-11-12,44,40,37,36,34,32,87,79,66,29.42,29.08,28.97,10,7,3,24,15,34,0.00,7,,163
2011-11-13,41,37,33,32,28,21,81,65,56,29.53,29.39,29.26,10,10,7,18,11,30,0.00,8,,249
2011-11-14,35,34,32,30,27,25,93,76,65,29.88,29.75,29.64,10,8,0,16,6,21,0.00,7,,193
2011-11-15,39,36,33,32,30,27,87,77,65,29.99,29.91,29.83,10,10,5,16,6,21,0.00,8,,151
2011-11-16,41,38,35,34,33,28,93,81,70,29.80,29.39,29.07,10,10,7,21,15,28,0.00,8,,115
2011-11-17,35,32,30,28,27,21,87,81,56,29.75,29.55,29.33,10,10,8,16,6,21,0.00,5,,165
2011-11-18,30,27,24,16,13,10,69,57,51,29.98,29.94,29.89,10,10,10,15,12,23,0.00,3,,86
2011-11-19,24,22,21,16,12,9,80,63,54,29.89,29.87,29.82,10,10,10,17,10,23,0.00,7,,82
2011-11-20,26,24,21,21,14,9,86,70,58,29.75,29.52,29.18,10,9,5,18,14,25,0.00,8,,90
2011-11-21,39,34,30,34,30,25,93,82,70,29.10,29.04,28.95,10,9,3,25,17,34,0.00,8,,94
2011-11-22,39,34,28,34,27,21,93,78,69,29.13,28.96,28.84,10,10,5,18,8,28,0.00,6,,106
2011-11-23,35,32,30,30,28,25,93,80,65,29.16,29.10,29.06,10,7,0,23,10,26,0.00,7,,137
2011-11-24,35,32,30,30,27,25,93,82,65,29.23,29.14,29.09,10,8,1,10,6,18,0.00,7,,144
2011-11-25,37,32,28,30,28,25,93,78,70,29.86,29.73,29.56,10,8,2,20,11,23,0.00,6,,116
2011-11-26,37,34,30,32,29,27,93,86,75,29.49,29.40,29.29,10,8,2,17,7,24,0.00,8,Rain-Snow,259
2011-11-27,35,32,30,30,28,27,93,83,75,29.98,29.76,29.51,10,9,4,14,6,,0.00,7,,167
2011-11-28,39,37,35,36,33,30,93,86,81,29.90,29.80,29.72,10,8,5,26,18,33,0.00,8,,115
2011-11-29,37,35,33,34,31,28,100,85,75,30.31,30.05,29.94,10,10,10,12,6,,0.00,4,,254
2011-11-30,42,37,32,34,31,28,93,80,61,30.69,30.64,30.55,10,10,10,21,10,33,0.00,7,,117